Wind_Speed
6 13 12 11 13 11 12 16 22 29 34 33 30 30 27 24 21 17 16 14 11 9 8 8 7 7 8 9 10 10 12 10 19 9 17 5 4 9 17 17 26 18 21
6 7 11 13 14 15 15 22 28 31 33 32 28 28 28 22 21 19 16 13 11 10 9 8 8 7 7 8 9 12 11 8 15 8 4 4 6 6 29 8 25 14 32
13 8 8 15 17 18 21 27 29 30 31 30 30 29 26 25 23 18 17 13 10 10 9 8 7 7 7 8 9 10 11 10 10 10 8 4 3 10 4 24 9 31 19
7 6 8 13 22 22 23 27 29 30 29 30 31 32 28 25 21 18 16 13 10 8 7 7 6 7 7 7 8 9 11 12 11 7 12 6 10 3 6 6 28 17 28
17 15 12 19 25 25 27 30 31 31 29 28 29 28 28 23 21 18 15 11 8 7 7 6 6 6 6 7 9 10 12 13 13 14 15 13 15 11 6 10 8 27 26
12 9 12 21 25 27 28 29 30 28 26 27 27 27 26 25 22 17 14 9 6 5 6 6 6 6 7 8 10 11 13 13 14 15 15 16 8 11 8 8 12 15 22
16 15 15 14 21 29 30 29 30 29 28 27 26 25 24 22 19 16 13 9 4 3 5 5 6 7 8 9 11 13 14 15 17 18 18 18 18 16 19 17 17 10 25
16 17 15 18 21 28 31 30 30 29 29 28 26 23 22 20 17 14 11 7 4 3 4 5 6 7 8 10 12 14 16 18 18 19 19 17 18 21 22 20 18 14 13
19 17 14 19 22 28 30 33 32 30 29 28 26 23 21 18 16 12 9 5 3 3 4 5 7 9 10 12 14 16 18 18 20 21 15 19 24 26 24 23 21 16 14
17 14 14 18 21 28 31 30 30 30 27 26 24 22 19 16 13 10 7 4 3 3 4 7 8 11 13 14 17 19 20 20 21 16 20 23 25 26 24 23 23 22 20
17 16 13 18 22 29 30 29 28 27 25 24 22 21 18 15 12 8 6 3 2 4 6 8 10 13 15 17 20 20 21 20 19 20 20 21 25 24 25 24 23 23 22
16 14 14 19 22 25 29 29 27 27 24 22 21 19 17 13 10 6 4 2 3 5 8 10 12 15 18 20 21 22 19 19 23 23 19 23 23 26 25 25 25 26 28
14 13 12 13 19 21 27 29 27 26 24 22 20 18 15 11 7 5 2 3 5 7 9 12 15 18 20 22 21 19 22 24 24 22 20 22 27 26 25 28 27 25 24
16 13 12 12 18 22 26 29 26 25 24 21 19 16 12 9 6 3 2 4 6 8 11 14 16 19 20 21 19 23 25 25 24 21 20 25 26 27 28 26 26 25 30
15 15 14 12 16 20 25 28 27 26 24 21 17 14 11 7 5 2 3 4 6 9 12 16 18 20 21 18 23 24 25 26 26 24 25 25 25 27 28 29 30 32 30
15 14 14 13 16 22 23 28 28 25 23 20 16 13 9 6 3 1 3 6 9 12 15 17 19 20 22 21 21 23 26 27 26 27 27 28 25 26 29 33 33 34 35
16 16 16 14 19 22 30 30 29 26 22 18 15 12 8 5 2 2 5 8 11 15 16 18 19 21 23 20 22 23 26 25 25 27 28 28 24 27 29 33 35 34 34
14 13 12 16 20 26 29 32 28 25 21 18 14 10 7 4 1 3 6 9 13 15 17 18 19 20 21 21 23 25 24 27 27 26 25 25 27 29 34 36 33 24 27
9 12 20 23 27 30 32 31 27 23 20 17 13 9 5 2 2 5 8 11 14 16 17 18 19 21 22 21 23 23 26 24 26 24 23 26 29 32 37 34 30 27 28
15 19 24 28 30 28 33 30 26 22 18 15 11 7 4 2 3 7 10 12 14 16 17 20 21 21 22 22 22 24 24 23 25 24 24 23 30 35 33 36 31 27 32
21 24 24 24 28 33 30 26 23 19 16 13 9 6 3 2 5 7 11 13 15 17 20 22 22 22 21 22 21 22 24 25 26 23 25 27 31 33 37 34 27 30 35
18 22 24 23 28 28 26 24 21 17 14 11 8 5 3 3 5 9 12 13 15 19 21 23 24 21 22 21 21 23 25 26 26 24 28 28 31 35 32 28 28 31 31
17 20 24 25 23 21 23 23 18 15 13 10 7 4 3 4 7 9 12 15 18 19 21 21 19 19 21 21 23 23 25 26 28 26 30 28 31 29 27 27 28 29 26
16 21 23 19 19 19 18 20 17 13 11 9 6 3 3 5 7 8 12 15 16 18 20 17 17 19 19 21 24 23 26 24 23 27 23 26 26 25 26 26 26 25 26
17 21 20 20 20 19 19 16 14 12 10 7 4 3 3 6 9 12 13 14 15 16 19 20 20 20 20 21 27 28 29 29 31 31 23 24 24 25 25 26 26 26 26
20 20 21 23 20 19 17 14 11 9 7 6 3 2 5 8 10 14 18 18 13 15 16 17 18 21 21 25 27 27 28 30 28 22 20 22 22 22 24 25 27 27 27
Wind_Direction
211 190 169 173 162 163 169 175 172 164 161 151 144 138 130 127 122 123 125 128 120 104 83 63 48 33 26 31 24 20 12 13 6 343 339 313 308 300 341 338 347 340 342
207 180 159 163 165 154 151 156 157 157 157 154 151 145 137 130 129 127 124 117 109 93 77 61 48 39 30 28 23 21 16 9 12 341 322 343 321 290 331 333 331 335 332
184 182 156 155 152 149 150 150 151 152 151 148 143 136 134 131 127 128 120 109 99 84 71 59 44 32 24 23 21 18 18 4 9 53 52 347 307 326 284 321 315 322 324
173 150 154 152 149 150 156 155 153 151 151 153 152 152 146 140 143 138 126 114 95 82 67 52 37 25 20 16 14 8 10 5 9 8 354 344 303 317 319 331 314 317 312
171 169 169 153 147 148 153 156 155 153 156 161 161 154 146 147 145 140 134 119 99 77 59 40 29 19 11 7 2 2 3 5 0 352 341 336 316 290 257 300 308 310 308
165 145 143 143 146 147 149 153 152 152 158 157 154 153 149 147 146 146 141 134 112 71 47 31 23 14 4 359 356 354 355 354 349 344 337 329 312 304 297 300 305 298 298
155 152 153 150 147 148 152 156 153 152 155 155 155 156 153 151 149 150 149 147 134 78 33 19 12 8 3 355 349 347 347 344 339 335 330 328 318 318 313 307 305 298 303
161 160 158 154 150 147 150 153 155 151 154 153 151 152 152 150 147 147 146 142 121 78 26 14 7 2 356 349 343 339 337 335 334 333 328 326 326 326 318 305 302 304 301
158 161 155 155 152 152 154 154 152 149 150 149 149 148 148 147 143 141 139 127 104 46 6 359 354 350 346 342 340 337 334 332 332 328 327 326 326 323 315 304 296 291 306
151 154 155 155 155 157 157 156 156 152 150 150 150 147 144 144 142 139 133 118 89 18 356 349 344 343 341 341 339 334 332 328 326 322 322 325 327 322 313 306 300 292 287
156 156 155 153 152 157 158 157 157 152 150 151 148 146 144 143 141 138 124 99 41 7 350 343 343 341 340 339 335 332 328 319 320 320 321 322 328 318 310 305 298 291 286
151 151 152 150 151 155 160 161 159 156 155 152 148 145 145 145 144 133 109 66 18 358 347 344 342 341 339 335 332 328 326 323 321 321 317 321 323 319 316 310 297 291 288
145 149 150 155 155 154 158 163 162 157 156 154 151 147 147 149 143 129 97 24 1 352 350 347 344 340 336 333 331 328 326 324 322 316 311 319 326 317 309 302 295 293 298
155 154 154 155 155 156 158 163 160 160 158 156 153 151 151 151 142 119 53 10 358 351 348 346 341 339 335 334 330 327 326 325 320 315 312 319 318 313 308 306 304 308 305
161 164 161 157 151 150 157 163 161 160 160 157 156 154 152 150 137 98 25 3 354 353 348 344 340 340 341 335 330 329 327 325 323 321 318 317 314 312 312 310 315 308 303
168 165 159 155 159 158 154 159 161 160 163 159 158 155 153 149 137 64 6 355 355 349 349 348 346 343 342 336 333 329 326 328 327 327 325 321 313 312 313 313 310 306 309
167 165 164 164 159 153 159 159 162 161 161 158 155 155 154 152 134 27 1 355 352 349 347 348 346 342 341 339 335 333 329 331 331 326 323 319 313 314 310 305 307 306 303
161 158 153 145 146 153 158 160 160 159 157 156 155 156 158 147 71 8 358 352 349 347 345 344 342 339 342 340 338 334 330 328 324 322 319 318 314 313 314 314 312 320 316
144 143 146 141 144 151 158 156 155 156 155 153 154 155 150 122 24 357 354 352 343 341 341 339 338 340 340 341 337 333 328 320 318 317 314 319 316 316 317 324 325 320 315
114 119 124 131 137 144 154 152 154 154 152 152 150 149 141 85 8 357 353 346 339 333 335 337 342 341 339 337 332 331 325 319 315 315 313 315 321 321 327 327 325 322 314
108 115 120 125 137 151 154 147 151 149 149 148 145 142 120 39 3 354 347 341 338 336 339 341 343 343 343 331 327 329 328 322 319 318 320 320 321 326 326 323 326 311 321
101 111 111 120 143 150 150 144 144 145 146 146 142 133 94 30 3 347 343 344 341 340 342 342 340 339 336 333 327 328 327 325 326 324 320 318 325 325 324 325 322 324 328
103 111 118 126 141 148 149 142 144 148 147 144 133 112 66 35 0 353 346 344 345 345 341 338 330 326 328 332 329 326 328 330 327 325 320 324 325 325 324 325 327 327 322
111 120 121 122 131 141 145 144 146 150 146 136 124 94 53 3 353 355 353 348 347 341 337 329 323 325 326 331 329 332 331 330 330 326 329 327 327 325 324 325 325 323 322
119 127 126 129 135 140 140 144 147 150 140 132 115 70 12 347 351 354 356 351 346 336 330 328 330 328 328 328 333 333 331 335 333 331 333 328 328 326 327 325 324 324 324
132 129 134 135 140 142 140 142 144 146 137 124 95 21 346 349 347 347 345 351 341 333 330 331 332 329 325 329 332 331 334 332 332 335 328 324 324 322 322 321 321 323 323
Height
734 734 733 735 735 737 739 742 744 747 749 755 761 766 771 775 777 781 784 786 788 788 789 789 789 788 787 785 784 782 781 778 776 771 766 763 762 760 759 757 756 755 753
736 732 732 733 734 735 738 740 742 746 750 755 760 765 770 776 779 782 786 788 788 788 789 790 790 789 788 786 785 783 781 780 777 774 770 767 761 758 758 756 754 752 751
730 731 731 731 733 735 739 741 744 748 752 755 761 767 773 777 780 784 786 788 789 789 789 790 790 789 788 787 786 784 782 780 778 776 775 774 773 762 754 753 752 751 749
724 728 730 731 731 735 739 743 745 749 753 757 761 765 769 775 781 784 786 788 789 790 790 790 790 789 789 788 787 785 783 780 778 776 776 776 774 771 759 751 749 748 746
716 723 727 728 731 735 739 743 746 749 754 758 761 766 771 776 781 784 786 788 790 790 790 790 789 789 789 788 787 785 783 781 779 777 774 772 770 769 766 753 748 745 742
716 722 728 730 732 735 740 745 747 751 755 759 763 767 772 777 780 784 786 788 789 790 790 790 789 789 789 788 786 784 782 780 778 776 774 772 769 765 762 753 746 741 737
712 720 726 730 733 735 739 745 748 753 756 759 764 769 773 777 780 783 785 787 788 789 790 790 789 789 788 786 785 783 780 778 776 773 770 768 765 763 760 754 743 734 730
709 716 722 727 731 734 739 745 749 752 756 760 765 770 774 777 780 783 785 787 788 789 789 789 789 788 786 784 782 780 778 775 773 770 767 764 762 760 757 753 746 730 724
703 714 721 726 730 735 739 743 749 753 757 761 766 770 774 777 780 783 785 787 788 788 788 788 787 786 784 782 780 778 775 772 769 766 763 761 758 755 751 747 744 738 723
703 714 720 726 731 736 741 746 752 754 759 763 767 771 774 778 781 784 785 787 787 787 787 786 785 783 782 780 777 775 772 769 766 763 760 757 754 750 746 742 738 735 729
701 710 719 726 731 737 741 747 753 755 760 764 768 771 775 779 782 784 785 786 786 786 785 784 783 781 779 777 775 772 769 766 763 759 756 753 750 746 742 737 733 729 725
700 710 717 725 731 737 742 747 753 757 762 765 769 772 776 780 782 784 784 785 785 784 783 783 781 779 777 774 771 768 765 762 758 754 752 749 746 741 737 732 727 722 717
704 712 719 724 730 737 742 748 753 758 762 767 770 774 777 780 782 783 784 783 783 783 782 781 779 776 774 771 768 765 761 757 754 750 748 744 740 735 731 727 721 715 710
702 711 719 724 730 736 742 748 754 759 763 767 771 774 777 780 781 782 782 782 782 782 781 779 777 774 771 768 765 762 757 753 750 747 743 740 736 731 726 721 716 710 704
704 709 716 723 730 736 742 748 754 759 763 767 771 774 777 779 780 781 782 782 781 780 779 777 775 772 768 765 762 757 753 749 745 742 739 735 731 727 723 716 711 705 697
701 707 714 721 728 734 740 748 754 759 763 767 771 774 776 778 780 781 781 781 780 779 776 774 772 769 766 762 758 754 749 745 741 737 733 730 726 721 716 712 705 698 690
695 703 710 718 726 733 739 746 753 758 763 767 771 773 776 778 779 780 779 779 778 777 774 772 770 767 763 759 755 750 746 742 738 734 729 725 721 716 709 702 696 689 684
693 701 709 718 726 733 740 746 753 759 763 767 770 773 776 778 778 778 778 778 776 775 773 771 768 765 760 756 751 747 743 739 735 731 726 721 715 710 703 695 687 681 676
693 700 708 716 725 732 740 747 754 759 763 767 771 774 776 777 777 778 777 776 775 773 771 769 765 761 757 753 749 744 740 734 729 725 721 717 711 705 697 688 682 675 669
697 704 712 719 726 735 741 748 755 760 764 768 771 773 775 776 777 777 776 775 773 771 769 765 762 758 754 750 747 743 737 731 724 720 715 712 707 698 691 685 677 670 663
702 709 716 722 729 737 743 750 756 760 764 768 771 773 774 775 776 775 775 773 772 769 765 762 758 755 752 748 745 740 734 728 721 716 710 706 700 694 688 682 675 668 659
710 715 720 729 736 741 746 752 757 762 765 768 770 773 774 775 775 774 774 772 769 766 761 758 754 752 749 745 741 737 732 726 720 713 707 701 696 690 684 678 671 663 657
716 721 726 734 741 745 748 754 759 763 766 769 771 772 773 774 774 774 772 768 765 762 758 755 752 749 745 741 737 733 727 722 716 711 704 698 693 686 680 674 667 661 654
723 727 732 738 744 749 753 756 760 764 766 769 771 772 773 773 773 771 769 766 763 760 757 754 750 746 742 738 733 728 722 717 712 706 699 695 689 683 677 669 664 658 652
728 732 736 742 747 751 754 758 762 765 767 769 770 771 772 772 770 768 766 764 762 759 756 752 748 743 738 734 730 725 718 713 708 701 696 691 686 679 672 666 661 655 648
731 736 740 744 750 754 757 761 763 765 767 769 770 771 771 770 768 766 763 762 760 758 755 751 746 742 737 732 727 721 716 711 706 700 696 690 685 678 672 665 658 652 646